Regional Weather Roundup
Issued by NWS

Home | Current Version | Previous Version | Text Only | Print | Product List | Glossary Off
Versions: 1 2 3 4 5 6 7 8 9 10 11 12 13 14 15 16 17 18 19 20 21 22 23 24 25 26 27

000
ASUS45 KSLC 271610
RWRUT

UTAH REGIONAL WEATHER ROUNDUP
NATIONAL WEATHER SERVICE SALT LAKE CITY UT
1000 AM MDT WED JUL 27 2016

UTZ001>011-023>025-271700-

NORTHERN UTAH

CITY           SKY/WX    TMP DP  RH WIND       PRES   REMARKS
BRIGHAM CITY     N/A     79  35  20 CALM      30.15S
HILL AFB       SUNNY     78  36  21 E13       30.18R
LOGAN          SUNNY     74  34  23 VRB5      30.18R
OGDEN          SUNNY     81  36  19 S6        30.15R
PROVO AIRPORT  SUNNY     79  45  29 VRB3      30.18R
SALT LAKE CITY SUNNY     86  39  19 S5        30.13R
VERNAL         SUNNY     75  42  30 VRB3      30.23S
WENDOVER       SUNNY     86  37  17 CALM      30.15S
HEBER CITY     SUNNY     70  37  30 CALM      30.26F

$$

UTZ012>022-026-027-271700-

SOUTHERN/CENTRAL UTAH

CITY           SKY/WX    TMP DP  RH WIND       PRES   REMARKS
BLANDING       SUNNY     80  46  30 CALM      30.34S
BRYCE CANYON   SUNNY     78  38  23 CALM      30.41S
CEDAR CITY     SUNNY     84  42  22 W5        30.23R
DELTA          SUNNY     81  32  17 CALM      30.17S
MILFORD        SUNNY     81  40  23 VRB3      30.19R
MOAB/CYNLANDS  SUNNY     86  41  20 E7        30.15R
PRICE          SUNNY     81  37  20 SE5       30.26S
ST GEORGE      SUNNY     88  45  22 CALM      30.04S

$$

REGIONAL REPORTS     COLORADO/ARIZONA

CITY           SKY/WX    TMP DP  RH WIND       PRES   REMARKS
CRAIG, CO      SUNNY     77  41  27 NE6       30.29F
GRAND JUNCTION SUNNY     81  42  25 SE9       30.20F
RIFLE          SUNNY     75  42  30 VRB5      30.27F
MONTROSE       SUNNY     77  45  32 CALM      30.29S
CORTEZ         SUNNY     80  47  31 NE3       30.28S
PAGE, AZ       SUNNY     86  43  22 CALM      30.13S
GRAND CANYON   SUNNY     85  44  23 VRB5      30.33S
KINGMAN        SUNNY     94  52  24 S3        30.05S HX  91
FLAGSTAFF      SUNNY     78  52  40 CALM      30.34F

$$

REGIONAL REPORTS    NEVADA/IDAHO/WYOMING

CITY           SKY/WX    TMP DP  RH WIND       PRES   REMARKS
LAS VEGAS, NV  SUNNY     99  40  13 VRB3      29.89R HX  94
ELY            SUNNY     76  23  14 VRB3      30.31S
ELKO             N/A     75  30  19 CALM      30.23R
POCATELLO, ID  SUNNY     71  44  37 NW8       30.19R
BURLEY         SUNNY     73  48  41 CALM      30.15S
EVANSTON, WY   SUNNY     75  28  17 SW10      30.35R
ROCK SPRINGS   SUNNY     73  28  18 W3        30.32S
KEMMERER         N/A     75  27  16 W7        30.36S

$$




USA.gov is the U.S. government's official web portal to all federal, state and local government web resources and services.